Terminal Aerodrome Forecast
Issued by NWS Atlanta, GA

Home | Current Version | Previous Version | Text Only | Print | Product List | Glossary On
Versions: 1 2 3 4 5 6 7 8 9 10 11 12 13 14 15 16 17 18 19 20 21 22 23 24 25 26 27 28 29 30 31 32 33 34
000
FTAK31 PAJN 300300 AAA
TAFAHN
TAF AMD
PAHN 300305Z 3003/3024 10006KT P6SM VCSH BKN050 BKN100
      TEMPO 3003/3006 10008G18KT
     FM300800 10008KT P6SM VCSH BKN018 OVC060
     FM301500 12008KT P6SM BKN050 BKN100
     FM302000 12010KT P6SM VCSH SCT020 OVC050
      AMD LTD TO CLD VIS AND WIND=

USA.gov is the U.S. government's official web portal to all federal, state and local government web resources and services.